Regional Weather Roundup
Issued by NWS

Home | Current Version | Previous Version | Text Only | Print | Product List | Glossary On
Versions: 1 2 3 4 5 6 7 8 9 10 11 12 13 14 15 16 17 18 19 20 21 22 23 24 25 26 27 28 29 30 31 32 33 34 35 36 37 38 39 40 41 42 43 44 45 46 47 48 49 50
576
ASUS43 KDTX 021110
RWRMI
MICHIGAN HOURLY REGIONAL WEATHER ROUNDUP
NATIONAL WEATHER SERVICE DETROIT/PONTIAC MI
700 AM EDT MON MAY 02 2016

NOTE: "FAIR" INDICATES FEW OR NO CLOUDS BELOW 12,000 FEET WITH NO
SIGNIFICANT WEATHER AND/OR OBSTRUCTION TO VISIBILITY.

MIZ047>049-052>055-059>063-066>070-074>076-081>083-021200-
SOUTHEAST LOWER MICHIGAN

CITY           SKY/WX    TMP DP  RH WIND       PRES   REMARKS
ADRIAN         CLOUDY    46  45  96 NE7       29.98R FOG
ALMA           CLOUDY    41  37  83 N8        30.04R
ANN ARBOR      CLOUDY    46  44  93 N9        29.98R FOG
BAD AXE        CLOUDY    40  39  94 N9        30.03R WCI  35
CARO           DRIZZLE   42  40  94 N8        30.00S
DETROIT CITY   LGT RAIN  46  44  93 N8        29.98R FOG
DETROIT        LGT RAIN  47  45  93 N8        29.98R FOG
FLINT          CLOUDY    45  40  82 N7        30.01R
GROSSE ILE     LGT RAIN  46  45  93 CALM      29.96S
HILLSDALE      DRIZZLE   44  44 100 N6        29.98R
HOWELL         DRIZZLE   43  42  98 N5        30.00R

CITY           SKY/WX    TMP DP  RH WIND       PRES   REMARKS
JACKSON        CLOUDY    43  32  65 N3        29.99R FOG
LAMBERTVILLE   DRIZZLE   47  46  93 E3        29.98R
LANSING        LGT RAIN  42  39  89 N6        30.02R
LAPEER         DRIZZLE   43  42  97 N5        30.00R
MASON          LGT RAIN  42  41  95 NE6       29.99S
MONROE         DRIZZLE   46  46  97 CALM      29.97R
MT. CLEMENS    LGT RAIN  46  46 100 NW7       29.97R FOG
PONTIAC        LGT RAIN  44  42  93 N7        29.97R
PORT HOPE        N/A     41  39  93 N10       30.02R
PORT HURON     LGT RAIN  45  45 100 N6        29.98R
TRI CITIES     CLOUDY    43  37  79 N13       30.03R
MIDLAND        CLOUDY    41  35  79 N5        30.04R
TROY           LGT RAIN  46  45  95 N5        30.00R
SAGINAW HB     CLOUDY    43  41  93 N10       30.02R FOG
$$
MIZ043>046-050>051-056>058-064>065-071>073-077>080-021200-
SOUTHWEST LOWER MICHIGAN

CITY           SKY/WX    TMP DP  RH WIND       PRES   REMARKS
BATTLE CREEK   CLOUDY    43  41  93 N8        30.02R FOG
BENTON HARBOR  CLOUDY    44  41  89 VRB5      30.02R
BIG RAPIDS     CLEAR     38  32  77 CALM      30.04R
COLDWATER      MIX PCPN  44  44  99 N6        29.99R
FREMONT        FAIR      40  33  76 CALM      30.04S
HOLLAND        CLOUDY   N/A N/A N/A N6        30.04R
GRAND RAPIDS   MOCLDY    42  38  85 N9        30.03R
IONIA          CLOUDY    41  38  89 N8        30.02R
KALAMAZOO      CLOUDY    44  40  85 N8        30.01R FOG
LUDINGTON      CLEAR     34  34 100 CALM      30.07S
MARSHALL       CLOUDY    43  42  96 N6        30.00R FOG
MOUNT PLEASANT   N/A     38  33  83 CALM      30.04R
MUSKEGON       CLEAR     43  34  70 N3        30.05R
SOUTH HAVEN    CLOUDY    43  42  94 NE7       30.02R
$$
MIZ016>042-021200-
NORTHERN LOWER MICHIGAN

CITY           SKY/WX    TMP DP  RH WIND       PRES   REMARKS
ALPENA         CLOUDY    39  36  89 CALM      30.07R
BEAVER ISLAND  CLOUDY    37  36  93 CALM      30.08R
BELLAIRE       CLEAR     31  30  96 CALM      30.09R
CADILLAC       CLEAR     29  27  93 CALM      30.05S
CHARLEVOIX     CLOUDY    39  36  86 CALM      30.10R
FRANKFORT      CLOUDY    36  34  94 CALM      30.08S
GAYLORD        CLOUDY    33  29  85 CALM      30.06R
GRAYLING       PTCLDY    30  28  93 CALM      30.06S
HARBOR SPRINGS CLOUDY    39  33  77 CALM      30.07R
HOUGHTON LAKE  CLOUDY    36  33  89 NE6       30.05S WCI  31
MANISTEE       PTCLDY    34  28  80 CALM      30.08R
OSCODA         CLOUDY    39  37  90 N5        30.05R
PELLSTON       CLOUDY    36  33  89 CALM      30.08R
ROGERS CITY    CLOUDY    36  32  87 CALM      30.08R
TRAVERSE CITY  MOCLDY    34  31  88 CALM      30.07R
$$
MIZ007>008-015-021200-
EASTERN UPPER MICHIGAN

CITY           SKY/WX    TMP DP  RH WIND       PRES   REMARKS
KINROSS          N/A     43  34  70 CALM      30.07S
MACKINAC ISLAN CLOUDY    42  34  73 SW3       30.07R
NEWBERRY       PTCLDY    37  34  90 N3        30.07S
S. S. MARIE    CLEAR     41  33  73 CALM      30.07S
MUNISING         N/A     33  30  88 VRB3      30.10R
$$
MIZ004>006-011>014-085-021200-
CENTRAL UPPER MICHIGAN

CITY           SKY/WX    TMP DP  RH WIND       PRES   REMARKS
MANISTIQUE     PTCLDY    33  32  96 CALM      30.08S
ESCANABA       CLEAR     36  32  87 NW3       30.10R
MENOMINEE      CLEAR     37  28  70 N7        30.10S WCI  32
SAWYER-GWINN   CLEAR     30  27  86 N6        30.09R WCI  24
$$
MIZ001>003-009>011-084-021200-
WESTERN UPPER MICHIGAN

CITY           SKY/WX    TMP DP  RH WIND       PRES   REMARKS
IRON MOUNTAIN  CLEAR     29  25  85 NW3       30.11R
HOUGHTON       CLEAR     36  30  79 NW7       30.12R WCI  30
COPPER HARBOR    N/A     33  31  92 W6        30.12S WCI  28
IRONWOOD         N/A     28  27  93 CALM      30.11S
$$

ABBREVIATIONS USED IN REMARKS
   TC - TEMPERATURE IN CELSIUS
  WCI - WIND CHILL INDEX
   HX - HEAT INDEX
  VSB - VISIBILITY





USA.gov is the U.S. government's official web portal to all federal, state and local government web resources and services.